Location: Centreville
(38.8333°N, 77.4295°W)
Time: 10:37:12
(UTC-05:00)

JUGNU - Pass Details

Date: 29 October 2019
Orbit: 836 x 864 km, 20.0° (Epoch: 16 November)

Event Time Altitude Azimuth Distance (km) Brightness Sun altitude
Rises 20:35:27 0° 228° (SW) 3,381 ? -28.3°
Reaches altitude 10° 20:40:06 10° 195° (SSW) 2,454 ? -29.2°
Enters shadow 20:41:05 11° 185° (S) 2,384 ? -29.4°
